When you browse on this site, cookies collect data to enhance your experience and personalize the content and advertising you see.
Visit our Privacy Policy to learn more. By continuing to use the site, you agree to this use of cookies and data.
  • In Portugal
  • List of Countries
  • For 7 days
  • Water Temperature
  • Satellite Maps
  • Weather Map
  • Weather Widgets
  • user-avatar
    Login

    Hourly Weather Chertovaya

    Today, 18 February, Monday

    Time Temperature Precipitation Wind Pressure Humidity
    00:00 -5°C° 0 mm 6 mps 738 mmHg 80%
    01:00 -5°C° 0 mm 6 mps 739 mmHg 80%
    02:00 -6°C° 0 mm 6 mps 739 mmHg 80%
    03:00 -6°C° 0 mm 5 mps 740 mmHg 82%
    04:00 -7°C° 0 mm 5 mps 740 mmHg 83%
    05:00 -8°C° 0 mm 5 mps 741 mmHg 84%
    06:00 -8°C° 0 mm 5 mps 741 mmHg 85%
    07:00 -8°C° 0 mm 5 mps 742 mmHg 86%
    08:00 -8°C° 0 mm 5 mps 743 mmHg 87%
    09:00 -8°C° 0 mm 5 mps 743 mmHg 84%
    10:00 -7°C° 0 mm 5 mps 744 mmHg 82%
    11:00 -6°C° 0 mm 6 mps 744 mmHg 79%
    12:00 -6°C° 0 mm 6 mps 745 mmHg 78%
    13:00 -6°C° 0 mm 5 mps 745 mmHg 77%
    14:00 -6°C° 0 mm 5 mps 745 mmHg 76%
    15:00 -5°C° 0 mm 4 mps 746 mmHg 78%
    16:00 -7°C° 0 mm 4 mps 746 mmHg 80%
    17:00 -7°C° 0 mm 3 mps 746 mmHg 83%
    18:00 -8°C° 0 mm 3 mps 747 mmHg 84%
    19:00 -8°C° 0 mm 3 mps 747 mmHg 86%
    20:00 -8°C° 0 mm 2 mps 748 mmHg 88%
    21:00 -8°C° 0 mm 2 mps 748 mmHg 89%
    22:00 -9°C° 0 mm 2 mps 748 mmHg 89%
    23:00 -8°C° 0 mm 1 mps 748 mmHg 90%

    Tomorrow, 19 February, Tuesday

    Time Temperature Precipitation Wind Pressure Humidity
    00:00 -9°C° 0 mm 1 mps 749 mmHg 90%
    01:00 -9°C° 0 mm 1 mps 749 mmHg 90%
    02:00 -10°C° 0 mm 0 mps 749 mmHg 89%
    03:00 -10°C° 0 mm 1 mps 749 mmHg 89%
    04:00 -10°C° 0 mm 1 mps 749 mmHg 88%
    05:00 -12°C° 0 mm 2 mps 749 mmHg 87%
    06:00 -10°C° 0 mm 2 mps 749 mmHg 86%
    07:00 -10°C° 0 mm 2 mps 749 mmHg 85%
    08:00 -12°C° 0 mm 3 mps 749 mmHg 85%
    09:00 -9°C° 0 mm 3 mps 749 mmHg 83%
    10:00 -8°C° 0 mm 3 mps 748 mmHg 82%
    11:00 -7°C° 0 mm 4 mps 748 mmHg 81%
    12:00 -5°C° 0 mm 4 mps 747 mmHg 80%
    13:00 -5°C° 0 mm 4 mps 747 mmHg 80%
    14:00 -5°C° 0 mm 5 mps 747 mmHg 79%
    15:00 -5°C° 0 mm 5 mps 746 mmHg 80%
    16:00 -6°C° 0 mm 5 mps 746 mmHg 82%
    17:00 -7°C° 0 mm 5 mps 745 mmHg 83%
    18:00 -7°C° 0 mm 5 mps 745 mmHg 84%
    19:00 -7°C° 0 mm 5 mps 744 mmHg 85%
    20:00 -8°C° 0 mm 5 mps 744 mmHg 86%
    21:00 -9°C° 0 mm 6 mps 744 mmHg 86%
    22:00 -9°C° 0 mm 6 mps 743 mmHg 85%
    23:00 -9°C° 0 mm 6 mps 742 mmHg 85%

    Day after tomorrow, 20 February, Wednesday

    Time Temperature Precipitation Wind Pressure Humidity
    00:00 -9°C° 0 mm 6 mps 742 mmHg 85%
    01:00 -8°C° 0 mm 6 mps 741 mmHg 85%
    02:00 -8°C° 0 mm 6 mps 741 mmHg 85%
    03:00 -8°C° 0 mm 6 mps 740 mmHg 86%
    04:00 -8°C° 0 mm 6 mps 739 mmHg 87%
    05:00 -8°C° 0 mm 6 mps 739 mmHg 88%
    06:00 -8°C° 0 mm 6 mps 738 mmHg 89%
    07:00 -6°C° 0 mm 6 mps 738 mmHg 89%
    08:00 -6°C° 0 mm 6 mps 738 mmHg 90%
    09:00 -5°C° 0 mm 6 mps 738 mmHg 91%
    10:00 -5°C° 0 mm 6 mps 738 mmHg 91%
    11:00 -4°C° 0 mm 6 mps 737 mmHg 92%
    12:00 -3°C° 0.2 mm 6 mps 737 mmHg 92%
    13:00 -3°C° 0.2 mm 6 mps 737 mmHg 92%
    14:00 -3°C° 0.2 mm 6 mps 737 mmHg 92%
    15:00 -2°C° 0.1 mm 5 mps 736 mmHg 92%
    16:00 -1°C° 0.1 mm 5 mps 736 mmHg 92%
    17:00 -1°C° 0.1 mm 5 mps 736 mmHg 93%
    18:00 -1°C° 0 mm 5 mps 736 mmHg 92%
    19:00 -1°C° 0 mm 5 mps 736 mmHg 92%
    20:00 -1°C° 0 mm 5 mps 736 mmHg 91%
    21:00 -2°C° 0.1 mm 6 mps 736 mmHg 91%
    22:00 -2°C° 0.1 mm 6 mps 735 mmHg 92%
    23:00 -2°C° 0.1 mm 6 mps 735 mmHg 92%

    21 February, Thursday

    Time Temperature Precipitation Wind Pressure Humidity
    00:00 -2°C° 0.2 mm 6 mps 735 mmHg 91%
    01:00 -2°C° 0.2 mm 6 mps 734 mmHg 91%
    02:00 -2°C° 0.2 mm 7 mps 734 mmHg 91%
    03:00 -3°C° 0.3 mm 7 mps 734 mmHg 87%
    04:00 -3°C° 0.3 mm 7 mps 734 mmHg 83%
    05:00 -4°C° 0.3 mm 7 mps 733 mmHg 78%
    06:00 -5°C° 0 mm 6 mps 734 mmHg 80%
    07:00 -6°C° 0 mm 6 mps 734 mmHg 82%
    08:00 -8°C° 0 mm 6 mps 735 mmHg 84%
    09:00 -6°C° 0 mm 6 mps 735 mmHg 82%
    10:00 -6°C° 0 mm 6 mps 735 mmHg 81%
    11:00 -6°C° 0 mm 7 mps 735 mmHg 80%
    12:00 -6°C° 0.1 mm 7 mps 735 mmHg 79%
    13:00 -6°C° 0.1 mm 7 mps 735 mmHg 78%
    14:00 -6°C° 0.1 mm 7 mps 735 mmHg 77%
    15:00 -7°C° 0.1 mm 7 mps 735 mmHg 76%
    16:00 -8°C° 0.1 mm 6 mps 736 mmHg 76%
    17:00 -8°C° 0.1 mm 6 mps 736 mmHg 75%
    18:00 -9°C° 0 mm 6 mps 737 mmHg 76%
    19:00 -9°C° 0 mm 6 mps 737 mmHg 78%
    20:00 -9°C° 0 mm 7 mps 738 mmHg 79%
    21:00 -9°C° 0 mm 6 mps 738 mmHg 80%
    22:00 -9°C° 0 mm 6 mps 739 mmHg 80%
    23:00 -9°C° 0 mm 6 mps 740 mmHg 81%

    22 February, Friday

    Time Temperature Precipitation Wind Pressure Humidity
    00:00 -10°C° 0 mm 6 mps 740 mmHg 81%
    01:00 -10°C° 0 mm 6 mps 741 mmHg 81%
    02:00 -11°C° 0 mm 5 mps 741 mmHg 81%
    03:00 -11°C° 0 mm 6 mps 742 mmHg 81%
    04:00 -12°C° 0 mm 6 mps 742 mmHg 80%
    05:00 -12°C° 0 mm 6 mps 743 mmHg 80%
    06:00 -12°C° 0 mm 6 mps 743 mmHg 79%
    07:00 -14°C° 0 mm 6 mps 744 mmHg 79%
    08:00 -14°C° 0 mm 6 mps 745 mmHg 78%
    09:00 -14°C° 0 mm 7 mps 745 mmHg 77%
    10:00 -14°C° 0 mm 7 mps 746 mmHg 75%
    11:00 -14°C° 0 mm 7 mps 746 mmHg 74%
    12:00 -14°C° 0 mm 7 mps 746 mmHg 73%
    13:00 -14°C° 0 mm 7 mps 747 mmHg 73%
    14:00 -14°C° 0 mm 7 mps 747 mmHg 72%
    15:00 -14°C° 0 mm 7 mps 747 mmHg 74%
    16:00 -14°C° 0 mm 6 mps 748 mmHg 75%
    17:00 -14°C° 0 mm 6 mps 748 mmHg 76%
    18:00 -15°C° 0 mm 6 mps 749 mmHg 77%
    19:00 -15°C° 0 mm 6 mps 749 mmHg 78%
    20:00 -14°C° 0 mm 5 mps 750 mmHg 79%
    21:00 -14°C° 0 mm 5 mps 750 mmHg 79%
    22:00 -14°C° 0 mm 5 mps 750 mmHg 80%
    23:00 -14°C° 0 mm 5 mps 751 mmHg 81%

    23 February, Saturday

    Time Temperature Precipitation Wind Pressure Humidity
    00:00 -14°C° 0 mm 5 mps 751 mmHg 81%
    01:00 -14°C° 0 mm 5 mps 752 mmHg 82%
    02:00 -14°C° 0 mm 5 mps 752 mmHg 82%
    03:00 -14°C° 0 mm 5 mps 753 mmHg 83%
    04:00 -15°C° 0 mm 5 mps 753 mmHg 84%
    05:00 -15°C° 0 mm 4 mps 754 mmHg 85%
    06:00 -15°C° 0 mm 4 mps 754 mmHg 86%
    07:00 -15°C° 0 mm 4 mps 754 mmHg 87%
    08:00 -15°C° 0 mm 4 mps 755 mmHg 88%
    09:00 -13°C° 0 mm 3 mps 755 mmHg 86%
    10:00 -12°C° 0 mm 3 mps 755 mmHg 83%
    11:00 -10°C° 0 mm 3 mps 756 mmHg 80%
    12:00 -9°C° 0 mm 3 mps 755 mmHg 79%
    13:00 -7°C° 0 mm 2 mps 755 mmHg 78%
    14:00 -7°C° 0 mm 2 mps 755 mmHg 77%
    15:00 -7°C° 0 mm 2 mps 755 mmHg 78%
    16:00 -7°C° 0 mm 2 mps 755 mmHg 80%
    17:00 -8°C° 0 mm 2 mps 755 mmHg 82%
    18:00 -9°C° 0 mm 3 mps 755 mmHg 82%
    19:00 -9°C° 0 mm 3 mps 754 mmHg 83%
    20:00 -9°C° 0 mm 3 mps 754 mmHg 83%
    21:00 -8°C° 0 mm 3 mps 754 mmHg 83%
    22:00 -8°C° 0 mm 3 mps 753 mmHg 83%
    23:00 -8°C° 0 mm 3 mps 753 mmHg 83%
    Show more